Time,TemperatureF,DewpointF,PressureIn,WindDirection,WindDirectionDegrees,WindSpeedMPH,WindSpeedGustMPH,Humidity,HourlyPrecipIn,Conditions,Clouds,dailyrainin,SoftwareType,DateUTC
2013-06-27 00:01:00,62.6,59.3,28.26,South,189,0.0,2.3,89,0.00,RA,OVC,0.00,WeatherDisplay:10.37,2013-06-27 04:01:00,
2013-06-27 00:06:00,62.6,59.3,28.23,SSW,199,0.0,0.0,89,0.00,RA,OVC,0.00,WeatherDisplay:10.37,2013-06-27 04:06:00,
2013-06-27 00:11:00,62.6,59.3,28.23,SSW,199,0.0,0.0,89,0.00,CLR,OVC,0.00,WeatherDisplay:10.37,2013-06-27 04:11:00,
2013-06-27 00:16:00,62.6,59.3,28.23,SSW,199,0.0,0.0,89,0.00,CLR,OVC,0.00,WeatherDisplay:10.37,2013-06-27 04:16:00,
2013-06-27 00:21:00,62.6,59.3,28.26,SSW,200,0.0,0.0,89,0.00,CLR,OVC,0.00,WeatherDisplay:10.37,2013-06-27 04:21:00,
2013-06-27 00:26:00,62.6,59.3,28.26,SSW,199,0.0,0.0,89,0.00,CLR,OVC,0.00,WeatherDisplay:10.37,2013-06-27 04:26:00,
2013-06-27 00:31:00,62.6,59.3,28.26,SSW,199,0.0,0.0,89,0.00,CLR,OVC,0.00,WeatherDisplay:10.37,2013-06-27 04:31:00,
2013-06-27 00:36:00,62.6,59.3,28.26,SSW,199,0.0,0.0,89,0.00,CLR,OVC,0.00,WeatherDisplay:10.37,2013-06-27 04:36:00,
2013-06-27 00:41:00,62.8,59.8,28.26,SW,221,0.0,2.3,90,0.00,CLR,OVC,0.00,WeatherDisplay:10.37,2013-06-27 04:41:00,
2013-06-27 00:46:00,62.8,59.8,28.26,SSW,207,0.0,2.3,90,0.00,CLR,OVC,0.00,WeatherDisplay:10.37,2013-06-27 04:46:00,
2013-06-27 00:51:00,62.8,59.8,28.26,SSE,168,0.0,2.3,90,0.00,CLR,OVC,0.00,WeatherDisplay:10.37,2013-06-27 04:51:00,
2013-06-27 00:56:00,62.8,59.8,28.26,WSW,247,0.0,0.0,90,0.00,CLR,OVC,0.00,WeatherDisplay:10.37,2013-06-27 04:56:00,
2013-06-27 01:01:00,62.8,59.8,28.26,WSW,247,0.0,0.0,90,0.00,CLR,OVC,0.00,WeatherDisplay:10.37,2013-06-27 05:01:00,
2013-06-27 01:06:00,62.8,59.8,28.26,SW,218,0.0,0.0,90,0.00,CLR,OVC,0.00,WeatherDisplay:10.37,2013-06-27 05:06:00,
2013-06-27 01:11:00,62.8,59.8,28.26,SW,218,0.0,0.0,90,0.00,CLR,OVC,0.00,WeatherDisplay:10.37,2013-06-27 05:11:00,
2013-06-27 01:16:00,62.8,59.8,28.26,West,273,0.0,3.5,90,0.00,CLR,OVC,0.00,WeatherDisplay:10.37,2013-06-27 05:16:00,
2013-06-27 01:21:00,62.8,59.8,28.26,West,271,0.0,3.6,90,0.00,CLR,OVC,0.00,WeatherDisplay:10.37,2013-06-27 05:21:00,
2013-06-27 01:26:00,62.8,59.8,28.26,West,275,0.0,0.0,90,0.00,CLR,OVC,0.00,WeatherDisplay:10.37,2013-06-27 05:26:00,
2013-06-27 01:31:00,62.8,59.8,28.26,West,275,0.0,2.2,90,0.00,CLR,OVC,0.00,WeatherDisplay:10.37,2013-06-27 05:31:00,
2013-06-27 01:36:00,62.8,59.5,28.26,West,275,0.0,0.0,89,0.00,CLR,OVC,0.00,WeatherDisplay:10.37,2013-06-27 05:36:00,
2013-06-27 01:41:00,62.8,59.5,28.26,West,275,0.0,0.0,89,0.00,CLR,OVC,0.00,WeatherDisplay:10.37,2013-06-27 05:41:00,
2013-06-27 01:46:00,62.6,59.3,28.26,West,275,0.0,0.0,89,0.00,CLR,OVC,0.00,WeatherDisplay:10.37,2013-06-27 05:46:00,
2013-06-27 01:51:00,62.8,59.5,28.26,West,275,0.0,0.0,89,0.00,CLR,OVC,0.00,WeatherDisplay:10.37,2013-06-27 05:51:00,
2013-06-27 01:56:00,62.8,59.5,28.26,West,275,0.0,0.0,89,0.00,CLR,OVC,0.00,WeatherDisplay:10.37,2013-06-27 05:56:00,
2013-06-27 02:01:00,62.8,59.5,28.26,WSW,251,0.0,0.0,89,0.00,CLR,OVC,0.00,WeatherDisplay:10.37,2013-06-27 06:01:00,
2013-06-27 02:06:00,63.0,59.7,28.26,South,179,2.2,3.6,89,0.00,CLR,OVC,0.00,WeatherDisplay:10.37,2013-06-27 06:06:00,
2013-06-27 02:11:00,62.8,59.8,28.26,SSW,200,0.0,0.0,90,0.00,CLR,OVC,0.00,WeatherDisplay:10.37,2013-06-27 06:11:00,
2013-06-27 02:16:00,62.8,59.8,28.26,SSW,200,0.0,0.0,90,0.00,CLR,OVC,0.00,WeatherDisplay:10.37,2013-06-27 06:16:00,
2013-06-27 02:21:00,63.0,60.0,28.26,SSW,200,0.0,0.0,90,0.00,CLR,OVC,0.00,WeatherDisplay:10.37,2013-06-27 06:21:00,
2013-06-27 02:26:00,63.0,60.0,28.26,SSW,200,0.0,3.1,90,0.00,CLR,OVC,0.00,WeatherDisplay:10.37,2013-06-27 06:26:00,
2013-06-27 02:31:00,63.0,60.0,28.26,SSW,201,0.0,2.7,90,0.00,CLR,OVC,0.00,WeatherDisplay:10.37,2013-06-27 06:31:00,
2013-06-27 02:36:00,63.0,60.0,28.26,SSW,198,0.0,3.6,90,0.00,CLR,OVC,0.00,WeatherDisplay:10.37,2013-06-27 06:36:00,
2013-06-27 02:41:00,62.8,59.8,28.26,South,174,0.0,2.3,90,0.00,CLR,OVC,0.00,WeatherDisplay:10.37,2013-06-27 06:41:00,
2013-06-27 02:46:00,62.6,59.6,28.26,South,174,0.0,0.0,90,0.00,CLR,OVC,0.00,WeatherDisplay:10.37,2013-06-27 06:46:00,
2013-06-27 02:51:00,62.6,59.6,28.26,South,184,0.0,2.3,90,0.00,CLR,OVC,0.00,WeatherDisplay:10.37,2013-06-27 06:51:00,
2013-06-27 02:56:00,62.4,59.4,28.26,SSW,209,0.0,0.0,90,0.00,CLR,OVC,0.00,WeatherDisplay:10.37,2013-06-27 06:56:00,
2013-06-27 03:01:00,62.2,59.3,28.26,SSW,209,0.0,0.0,90,0.00,CLR,OVC,0.00,WeatherDisplay:10.37,2013-06-27 07:01:00,
2013-06-27 03:06:00,62.1,59.1,28.26,SSW,209,0.0,0.0,90,0.00,CLR,OVC,0.00,WeatherDisplay:10.37,2013-06-27 07:06:00,
2013-06-27 03:11:00,61.9,58.9,28.26,SSW,209,0.0,0.0,90,0.00,CLR,OVC,0.00,WeatherDisplay:10.37,2013-06-27 07:11:00,
2013-06-27 03:16:00,61.7,58.4,28.26,SSW,209,0.0,0.0,89,0.00,CLR,OVC,0.00,WeatherDisplay:10.37,2013-06-27 07:16:00,
2013-06-27 03:21:00,61.9,58.9,28.26,SSW,209,0.0,0.0,90,0.00,CLR,OVC,0.00,WeatherDisplay:10.37,2013-06-27 07:21:00,
2013-06-27 03:26:00,62.1,59.1,28.26,SSW,209,0.0,0.0,90,0.00,CLR,OVC,0.00,WeatherDisplay:10.37,2013-06-27 07:26:00,
2013-06-27 03:31:00,62.2,59.3,28.26,SSW,209,0.0,0.0,90,0.00,CLR,OVC,0.00,WeatherDisplay:10.37,2013-06-27 07:31:00,
2013-06-27 03:36:00,62.4,59.4,28.26,SSW,209,0.0,0.0,90,0.00,CLR,OVC,0.00,WeatherDisplay:10.37,2013-06-27 07:36:00,
2013-06-27 03:41:00,62.4,59.4,28.26,SSW,209,0.0,0.0,90,0.00,CLR,OVC,0.00,WeatherDisplay:10.37,2013-06-27 07:41:00,
2013-06-27 03:46:00,62.6,59.6,28.26,SSW,209,0.0,0.0,90,0.00,CLR,OVC,0.00,WeatherDisplay:10.37,2013-06-27 07:46:00,
2013-06-27 03:51:00,62.8,59.8,28.26,SSW,209,0.0,0.0,90,0.00,CLR,OVC,0.00,WeatherDisplay:10.37,2013-06-27 07:51:00,
2013-06-27 03:56:00,62.8,59.8,28.26,SSW,209,0.0,0.0,90,0.00,CLR,OVC,0.00,WeatherDisplay:10.37,2013-06-27 07:56:00,
2013-06-27 04:01:00,62.8,59.8,28.26,SSW,209,0.0,0.0,90,0.00,CLR,OVC,0.00,WeatherDisplay:10.37,2013-06-27 08:01:00,
2013-06-27 04:06:00,62.8,59.8,28.23,SSW,209,0.0,0.0,90,0.00,CLR,OVC,0.00,WeatherDisplay:10.37,2013-06-27 08:06:00,
2013-06-27 04:11:00,63.0,60.0,28.23,SSW,209,0.0,0.0,90,0.00,CLR,OVC,0.00,WeatherDisplay:10.37,2013-06-27 08:11:00,
2013-06-27 04:16:00,63.0,60.0,28.23,SSW,209,0.0,0.0,90,0.00,CLR,OVC,0.00,WeatherDisplay:10.37,2013-06-27 08:16:00,
2013-06-27 04:21:00,63.0,60.0,28.23,SSW,209,0.0,0.0,90,0.00,CLR,OVC,0.00,WeatherDisplay:10.37,2013-06-27 08:21:00,
2013-06-27 04:26:00,63.0,60.0,28.23,SSW,209,0.0,0.0,90,0.00,CLR,OVC,0.00,WeatherDisplay:10.37,2013-06-27 08:26:00,
2013-06-27 04:31:00,63.0,60.0,28.23,SSW,210,0.0,2.3,90,0.00,CLR,OVC,0.00,WeatherDisplay:10.37,2013-06-27 08:31:00,
2013-06-27 04:36:00,63.1,60.2,28.23,SSW,209,0.0,0.0,90,0.00,CLR,OVC,0.00,WeatherDisplay:10.37,2013-06-27 08:36:00,
2013-06-27 04:41:00,63.0,60.0,28.23,SSW,210,0.0,0.0,90,0.00,CLR,OVC,0.00,WeatherDisplay:10.37,2013-06-27 08:41:00,
2013-06-27 04:46:00,63.0,60.0,28.23,SSW,209,0.0,0.0,90,0.00,CLR,OVC,0.00,WeatherDisplay:10.37,2013-06-27 08:46:00,
2013-06-27 04:51:00,62.8,59.8,28.23,SSW,209,0.0,0.0,90,0.00,CLR,OVC,0.00,WeatherDisplay:10.37,2013-06-27 08:51:00,
2013-06-27 04:56:00,62.4,59.4,28.23,SSW,209,0.0,0.0,90,0.00,CLR,OVC,0.00,WeatherDisplay:10.37,2013-06-27 08:56:00,
2013-06-27 05:01:00,62.2,59.0,28.23,SSW,209,0.0,0.0,89,0.00,CLR,OVC,0.00,WeatherDisplay:10.37,2013-06-27 09:01:00,
2013-06-27 05:06:00,62.1,58.8,28.23,SSW,209,0.0,0.0,89,0.00,CLR,OVC,0.00,WeatherDisplay:10.37,2013-06-27 09:06:00,
2013-06-27 05:11:00,61.9,58.6,28.23,SSW,209,0.0,0.0,89,0.00,CLR,OVC,0.00,WeatherDisplay:10.37,2013-06-27 09:11:00,
2013-06-27 05:16:00,61.7,58.4,28.23,SSW,210,0.0,0.0,89,0.00,CLR,OVC,0.00,WeatherDisplay:10.37,2013-06-27 09:16:00,
2013-06-27 05:21:00,61.5,58.2,28.23,SSW,209,0.0,0.0,89,0.00,CLR,OVC,0.00,WeatherDisplay:10.37,2013-06-27 09:21:00,
2013-06-27 05:26:00,61.3,58.1,28.23,SSW,209,0.0,0.0,89,0.00,CLR,OVC,0.00,WeatherDisplay:10.37,2013-06-27 09:26:00,
2013-06-27 05:31:00,61.2,57.9,28.23,SSW,209,0.0,0.0,89,0.00,CLR,OVC,0.00,WeatherDisplay:10.37,2013-06-27 09:31:00,
2013-06-27 05:36:00,61.0,57.7,28.23,SSW,209,0.0,0.0,89,0.00,CLR,OVC,0.00,WeatherDisplay:10.37,2013-06-27 09:36:00,
2013-06-27 05:41:00,61.0,57.7,28.23,SSW,210,0.0,0.0,89,0.00,CLR,OVC,0.00,WeatherDisplay:10.37,2013-06-27 09:41:00,
2013-06-27 05:46:00,60.8,57.5,28.23,SSW,209,0.0,0.0,89,0.00,CLR,OVC,0.00,WeatherDisplay:10.37,2013-06-27 09:46:00,
2013-06-27 05:51:00,61.2,57.9,28.23,SSW,210,0.0,0.0,89,0.00,CLR,OVC,0.00,WeatherDisplay:10.37,2013-06-27 09:51:00,
2013-06-27 05:56:00,61.3,58.4,28.23,SSW,209,0.0,0.0,90,0.00,CLR,OVC,0.00,WeatherDisplay:10.37,2013-06-27 09:56:00,
2013-06-27 06:01:00,61.3,58.4,28.23,SSW,209,0.0,0.0,90,0.00,CLR,OVC,0.00,WeatherDisplay:10.37,2013-06-27 10:01:00,
2013-06-27 06:06:00,61.5,58.6,28.23,SSW,210,0.0,0.0,90,0.00,CLR,OVC,0.00,WeatherDisplay:10.37,2013-06-27 10:06:00,
2013-06-27 06:11:00,61.5,58.6,28.23,SSW,209,0.0,0.0,90,0.00,CLR,OVC,0.00,WeatherDisplay:10.37,2013-06-27 10:11:00,
2013-06-27 06:16:00,61.5,58.6,28.23,SSW,210,0.0,0.0,90,0.00,CLR,OVC,0.00,WeatherDisplay:10.37,2013-06-27 10:16:00,
2013-06-27 06:21:00,61.7,58.7,28.23,SSW,210,0.0,0.0,90,0.00,CLR,OVC,0.00,WeatherDisplay:10.37,2013-06-27 10:21:00,
2013-06-27 06:26:00,62.1,59.1,28.23,WSW,257,0.0,2.3,90,0.00,CLR,OVC,0.00,WeatherDisplay:10.37,2013-06-27 10:26:00,
2013-06-27 06:31:00,62.1,59.1,28.23,WSW,257,0.0,0.0,90,0.00,CLR,OVC,0.00,WeatherDisplay:10.37,2013-06-27 10:31:00,
2013-06-27 06:36:00,62.1,59.1,28.23,WSW,257,0.0,0.0,90,0.00,CLR,OVC,0.00,WeatherDisplay:10.37,2013-06-27 10:36:00,
2013-06-27 06:41:00,62.1,59.1,28.23,WSW,257,0.0,0.0,90,0.00,CLR,OVC,0.00,WeatherDisplay:10.37,2013-06-27 10:41:00,
2013-06-27 06:46:00,61.9,58.9,28.23,WSW,257,0.0,0.0,90,0.00,CLR,OVC,0.00,WeatherDisplay:10.37,2013-06-27 10:46:00,
2013-06-27 06:51:00,61.9,58.9,28.23,WSW,257,0.0,0.0,90,0.00,CLR,OVC,0.00,WeatherDisplay:10.37,2013-06-27 10:51:00,
2013-06-27 06:56:00,61.9,58.6,28.23,WSW,257,0.0,0.0,89,0.00,CLR,OVC,0.00,WeatherDisplay:10.37,2013-06-27 10:56:00,
2013-06-27 07:01:00,62.1,59.1,28.23,WSW,258,0.0,0.0,90,0.00,CLR,OVC,0.00,WeatherDisplay:10.37,2013-06-27 11:01:00,
2013-06-27 07:06:00,62.6,59.6,28.23,WSW,258,0.0,0.0,90,0.00,CLR,OVC,0.00,WeatherDisplay:10.37,2013-06-27 11:06:00,
2013-06-27 07:11:00,63.0,60.0,28.23,WSW,241,0.0,3.5,90,0.00,CLR,OVC,0.00,WeatherDisplay:10.37,2013-06-27 11:11:00,
2013-06-27 07:16:00,63.3,60.3,28.23,West,263,0.0,2.3,90,0.00,CLR,OVC,0.00,WeatherDisplay:10.37,2013-06-27 11:16:00,
2013-06-27 07:21:00,63.5,60.5,28.26,WSW,253,0.0,3.5,90,0.00,CLR,OVC,0.00,WeatherDisplay:10.37,2013-06-27 11:21:00,
2013-06-27 07:26:00,63.7,60.7,28.26,West,267,0.0,4.9,90,0.00,CLR,OVC,0.00,WeatherDisplay:10.37,2013-06-27 11:26:00,
2013-06-27 07:31:00,63.9,60.9,28.26,West,267,2.7,3.5,90,0.00,CLR,OVC,0.00,WeatherDisplay:10.37,2013-06-27 11:31:00,
2013-06-27 07:36:00,64.2,61.2,28.23,West,275,2.2,3.5,90,0.00,CLR,OVC,0.00,WeatherDisplay:10.37,2013-06-27 11:36:00,
2013-06-27 07:41:00,64.2,61.2,28.23,West,276,2.7,4.6,90,0.00,CLR,OVC,0.00,WeatherDisplay:10.37,2013-06-27 11:41:00,
2013-06-27 07:46:00,64.6,61.6,28.23,NNW,331,2.2,4.6,90,0.00,CLR,OVC,0.00,WeatherDisplay:10.37,2013-06-27 11:46:00,
2013-06-27 07:51:00,64.6,61.6,28.23,West,275,0.0,3.5,90,0.00,CLR,OVC,0.00,WeatherDisplay:10.37,2013-06-27 11:51:00,
2013-06-27 07:56:00,64.8,61.8,28.23,WSW,244,0.0,5.8,90,0.00,CLR,OVC,0.00,WeatherDisplay:10.37,2013-06-27 11:56:00,
2013-06-27 08:01:00,64.6,61.6,28.23,WNW,287,0.0,2.3,90,0.00,CLR,OVC,0.00,WeatherDisplay:10.37,2013-06-27 12:01:00,
2013-06-27 08:06:00,64.6,61.6,28.23,WSW,238,0.0,3.5,90,0.00,CLR,OVC,0.00,WeatherDisplay:10.37,2013-06-27 12:06:00,
2013-06-27 08:11:00,64.9,62.2,28.23,WSW,238,0.0,0.0,91,0.00,CLR,OVC,0.00,WeatherDisplay:10.37,2013-06-27 12:11:00,
2013-06-27 08:16:00,65.3,62.3,28.23,WSW,254,2.2,4.6,90,0.00,CLR,OVC,0.00,WeatherDisplay:10.37,2013-06-27 12:16:00,
2013-06-27 08:21:00,65.3,62.3,28.23,West,267,0.0,8.1,90,0.00,CLR,OVC,0.00,WeatherDisplay:10.37,2013-06-27 12:21:00,
2013-06-27 08:26:00,65.7,62.6,28.23,WNW,287,2.2,5.8,90,0.00,CLR,OVC,0.00,WeatherDisplay:10.37,2013-06-27 12:26:00,
2013-06-27 08:31:00,65.5,62.5,28.23,WNW,302,0.0,0.0,90,0.00,CLR,OVC,0.00,WeatherDisplay:10.37,2013-06-27 12:31:00,
2013-06-27 08:36:00,65.7,62.6,28.23,WSW,240,3.1,5.8,90,0.00,CLR,OVC,0.00,WeatherDisplay:10.37,2013-06-27 12:36:00,
2013-06-27 08:41:00,65.5,62.5,28.23,WNW,288,0.0,3.6,90,0.00,CLR,OVC,0.00,WeatherDisplay:10.37,2013-06-27 12:41:00,
2013-06-27 08:46:00,65.7,62.6,28.23,West,279,2.2,5.8,90,0.00,CLR,OVC,0.00,WeatherDisplay:10.37,2013-06-27 12:46:00,
2013-06-27 08:51:00,65.8,62.8,28.23,WNW,291,0.0,0.0,90,0.00,CLR,OVC,0.00,WeatherDisplay:10.37,2013-06-27 12:51:00,
2013-06-27 08:56:00,66.0,63.0,28.23,West,275,0.0,2.3,90,0.00,CLR,OVC,0.00,WeatherDisplay:10.37,2013-06-27 12:56:00,
2013-06-27 09:01:00,66.6,63.5,28.23,SW,224,3.6,3.6,90,0.00,CLR,OVC,0.00,WeatherDisplay:10.37,2013-06-27 13:01:00,
2013-06-27 09:06:00,66.9,63.9,28.23,West,276,0.0,3.5,90,0.00,CLR,OVC,0.00,WeatherDisplay:10.37,2013-06-27 13:06:00,
2013-06-27 09:11:00,67.1,64.1,28.23,WSW,258,0.0,3.5,90,0.00,CLR,OVC,0.00,WeatherDisplay:10.37,2013-06-27 13:11:00,
2013-06-27 09:16:00,67.3,63.9,28.23,West,275,2.7,4.6,89,0.00,CLR,OVC,0.00,WeatherDisplay:10.37,2013-06-27 13:16:00,
2013-06-27 09:21:00,67.6,64.0,28.23,NW,305,0.0,3.5,88,0.00,CLR,OVC,0.00,WeatherDisplay:10.37,2013-06-27 13:21:00,
2013-06-27 09:26:00,67.6,63.6,28.23,West,262,0.0,3.6,87,0.00,CLR,OVC,0.00,WeatherDisplay:10.37,2013-06-27 13:26:00,
2013-06-27 09:31:00,67.8,63.1,28.23,West,271,0.0,3.5,85,0.00,CLR,OVC,0.00,WeatherDisplay:10.37,2013-06-27 13:31:00,
2013-06-27 09:36:00,68.0,62.6,28.23,West,265,0.0,3.5,83,0.00,CLR,OVC,0.00,WeatherDisplay:10.37,2013-06-27 13:36:00,
2013-06-27 09:41:00,68.2,62.1,28.23,WNW,301,0.0,2.3,81,0.00,CLR,OVC,0.00,WeatherDisplay:10.37,2013-06-27 13:41:00,
2013-06-27 09:46:00,68.2,61.1,28.23,WSW,257,0.0,2.3,78,0.00,CLR,OVC,0.00,WeatherDisplay:10.37,2013-06-27 13:46:00,
2013-06-27 09:51:00,68.9,61.4,28.23,WNW,302,0.0,3.5,77,0.00,CLR,OVC,0.00,WeatherDisplay:10.37,2013-06-27 13:51:00,
2013-06-27 09:56:00,69.8,63.0,28.23,SW,223,0.0,0.0,79,0.00,CLR,OVC,0.00,WeatherDisplay:10.37,2013-06-27 13:56:00,
2013-06-27 10:01:00,70.5,63.7,28.23,WNW,285,2.2,4.6,79,0.00,CLR,OVC,0.00,WeatherDisplay:10.37,2013-06-27 14:01:00,
2013-06-27 10:06:00,70.0,59.3,28.23,WSW,245,3.6,5.8,69,0.00,CLR,OVC,0.00,WeatherDisplay:10.37,2013-06-27 14:06:00,
2013-06-27 10:11:00,70.2,59.1,28.23,West,280,0.0,4.6,68,0.00,CLR,OVC,0.00,WeatherDisplay:10.37,2013-06-27 14:11:00,
2013-06-27 10:16:00,70.7,57.0,28.23,WSW,248,2.7,5.8,62,0.00,CLR,OVC,0.00,WeatherDisplay:10.37,2013-06-27 14:16:00,
2013-06-27 10:21:00,70.9,56.3,28.23,West,260,2.2,3.5,60,0.00,CLR,OVC,0.00,WeatherDisplay:10.37,2013-06-27 14:21:00,
2013-06-27 10:26:00,70.9,56.8,28.23,West,263,2.2,4.6,61,0.00,CLR,OVC,0.00,WeatherDisplay:10.37,2013-06-27 14:26:00,
2013-06-27 10:31:00,71.1,56.5,28.23,NW,323,0.0,4.6,60,0.00,CLR,OVC,0.00,WeatherDisplay:10.37,2013-06-27 14:31:00,
2013-06-27 10:36:00,71.2,56.6,28.23,NNW,329,2.7,5.8,60,0.00,CLR,OVC,0.00,WeatherDisplay:10.37,2013-06-27 14:36:00,
2013-06-27 10:41:00,71.1,55.5,28.23,WNW,293,0.0,3.5,58,0.00,CLR,OVC,0.00,WeatherDisplay:10.37,2013-06-27 14:41:00,
2013-06-27 10:46:00,71.2,55.7,28.23,West,273,3.1,3.5,58,0.00,CLR,OVC,0.00,WeatherDisplay:10.37,2013-06-27 14:46:00,
2013-06-27 10:51:00,71.8,56.7,28.23,SW,217,0.0,3.1,59,0.00,CLR,OVC,0.00,WeatherDisplay:10.37,2013-06-27 14:51:00,
2013-06-27 10:56:00,72.7,56.6,28.23,NW,306,0.0,3.6,57,0.00,CLR,OVC,0.00,WeatherDisplay:10.37,2013-06-27 14:56:00,
2013-06-27 11:01:00,74.1,53.7,28.23,North,357,0.0,3.5,49,0.00,CLR,OVC,0.00,WeatherDisplay:10.37,2013-06-27 15:01:00,
2013-06-27 11:06:00,74.7,50.7,28.20,NW,313,0.0,3.6,43,0.00,CLR,OVC,0.00,WeatherDisplay:10.37,2013-06-27 15:06:00,
2013-06-27 11:11:00,73.9,50.6,28.20,WNW,288,2.7,8.1,44,0.00,CLR,OVC,0.00,WeatherDisplay:10.37,2013-06-27 15:11:00,
2013-06-27 11:16:00,74.1,52.6,28.20,West,277,0.0,2.7,47,0.00,CLR,OVC,0.00,WeatherDisplay:10.37,2013-06-27 15:16:00,
2013-06-27 11:21:00,75.9,51.8,28.20,North,349,0.0,4.6,43,0.00,CLR,OVC,0.00,WeatherDisplay:10.37,2013-06-27 15:21:00,
2013-06-27 11:26:00,77.4,51.8,28.20,WSW,242,0.0,3.5,41,0.00,CLR,OVC,0.00,WeatherDisplay:10.37,2013-06-27 15:26:00,
2013-06-27 11:31:00,78.6,47.1,28.20,WSW,240,2.2,3.5,33,0.00,CLR,OVC,0.00,WeatherDisplay:10.37,2013-06-27 15:31:00,
2013-06-27 11:36:00,77.5,44.5,28.20,NW,322,2.2,3.5,31,0.00,CLR,OVC,0.00,WeatherDisplay:10.37,2013-06-27 15:36:00,
2013-06-27 11:41:00,77.9,44.8,28.20,West,279,3.1,5.8,31,0.00,CLR,OVC,0.00,WeatherDisplay:10.37,2013-06-27 15:41:00,
2013-06-27 11:46:00,78.1,42.3,28.20,WNW,285,2.7,8.1,28,0.00,CLR,OVC,0.00,WeatherDisplay:10.37,2013-06-27 15:46:00,
2013-06-27 11:51:00,77.4,44.4,28.20,SW,224,0.0,0.0,31,0.00,CLR,OVC,0.00,WeatherDisplay:10.37,2013-06-27 15:51:00,
2013-06-27 11:56:00,77.7,43.8,28.20,NW,313,2.2,3.5,30,0.00,CLR,OVC,0.00,WeatherDisplay:10.37,2013-06-27 15:56:00,
2013-06-27 12:01:00,77.9,43.1,28.20,West,270,0.0,4.6,29,0.00,CLR,OVC,0.00,WeatherDisplay:10.37,2013-06-27 16:01:00,
2013-06-27 12:06:00,78.1,44.1,28.20,WNW,296,4.5,6.9,30,0.00,CLR,OVC,0.00,WeatherDisplay:10.37,2013-06-27 16:06:00,
2013-06-27 12:11:00,79.2,41.3,28.20,SSW,207,2.2,5.8,26,0.00,CLR,OVC,0.00,WeatherDisplay:10.37,2013-06-27 16:11:00,
2013-06-27 12:16:00,80.1,41.1,28.20,West,268,0.0,3.5,25,0.00,CLR,OVC,0.00,WeatherDisplay:10.37,2013-06-27 16:16:00,
2013-06-27 12:21:00,80.1,40.0,28.20,SW,234,2.7,5.8,24,0.00,CLR,OVC,0.00,WeatherDisplay:10.37,2013-06-27 16:21:00,
2013-06-27 12:26:00,80.8,39.5,28.20,NNE,14,0.0,4.6,23,0.00,CLR,OVC,0.00,WeatherDisplay:10.37,2013-06-27 16:26:00,
2013-06-27 12:31:00,81.1,40.9,28.20,SW,231,0.0,0.0,24,0.00,CLR,OVC,0.00,WeatherDisplay:10.37,2013-06-27 16:31:00,
2013-06-27 12:36:00,81.5,39.0,28.20,WSW,237,4.0,5.8,22,0.00,CLR,OVC,0.00,WeatherDisplay:10.37,2013-06-27 16:36:00,
2013-06-27 12:41:00,81.5,39.0,28.20,WNW,283,2.7,5.8,22,0.00,CLR,OVC,0.00,WeatherDisplay:10.37,2013-06-27 16:41:00,
2013-06-27 12:46:00,81.3,38.8,28.20,NE,56,0.0,3.5,22,0.00,CLR,OVC,0.00,WeatherDisplay:10.37,2013-06-27 16:46:00,
2013-06-27 12:51:00,80.1,37.8,28.20,NW,312,3.1,5.8,22,0.00,CLR,OVC,0.00,WeatherDisplay:10.37,2013-06-27 16:51:00,
2013-06-27 12:56:00,78.4,40.7,28.20,West,281,0.0,0.0,26,0.00,CLR,OVC,0.00,WeatherDisplay:10.37,2013-06-27 16:56:00,
2013-06-27 13:01:00,78.3,39.5,28.20,SSW,207,4.0,5.8,25,0.00,CLR,OVC,0.00,WeatherDisplay:10.37,2013-06-27 17:01:00,
2013-06-27 13:06:00,80.1,40.0,28.20,WSW,237,0.0,0.0,24,0.00,CLR,OVC,0.00,WeatherDisplay:10.37,2013-06-27 17:06:00,
2013-06-27 13:11:00,81.0,38.5,28.20,West,262,0.0,3.5,22,0.00,CLR,OVC,0.00,WeatherDisplay:10.37,2013-06-27 17:11:00,
2013-06-27 13:16:00,81.1,38.7,28.20,West,281,4.5,5.8,22,0.00,CLR,OVC,0.00,WeatherDisplay:10.37,2013-06-27 17:16:00,
2013-06-27 13:21:00,81.5,40.1,28.20,West,278,0.0,3.6,23,0.00,CLR,OVC,0.00,WeatherDisplay:10.37,2013-06-27 17:21:00,
2013-06-27 13:26:00,82.6,38.7,28.20,WNW,287,2.2,3.5,21,0.00,CLR,OVC,0.00,WeatherDisplay:10.37,2013-06-27 17:26:00,
2013-06-27 13:31:00,83.7,38.3,28.20,WNW,298,4.0,5.8,20,0.00,CLR,OVC,0.00,WeatherDisplay:10.37,2013-06-27 17:31:00,
2013-06-27 13:36:00,83.1,36.6,28.20,NNW,333,2.7,8.1,19,0.00,CLR,OVC,0.00,WeatherDisplay:10.37,2013-06-27 17:36:00,
2013-06-27 13:41:00,81.7,35.4,28.20,NW,322,4.0,5.8,19,0.00,CLR,OVC,0.00,WeatherDisplay:10.37,2013-06-27 17:41:00,
2013-06-27 13:46:00,80.4,35.7,28.20,West,281,2.7,5.8,20,0.00,CLR,OVC,0.00,WeatherDisplay:10.37,2013-06-27 17:46:00,
2013-06-27 13:51:00,80.2,37.9,28.20,WNW,292,0.0,0.0,22,0.00,CLR,OVC,0.00,WeatherDisplay:10.37,2013-06-27 17:51:00,
2013-06-27 13:56:00,79.3,36.0,28.20,WNW,298,4.0,4.0,21,0.00,CLR,OVC,0.00,WeatherDisplay:10.37,2013-06-27 17:56:00,
2013-06-27 14:01:00,79.7,37.5,28.20,NNW,337,0.0,2.3,22,0.00,CLR,OVC,0.00,WeatherDisplay:10.37,2013-06-27 18:01:00,
2013-06-27 14:06:00,80.1,36.6,28.20,WSW,243,3.1,4.9,21,0.00,CLR,OVC,0.00,WeatherDisplay:10.37,2013-06-27 18:06:00,
2013-06-27 14:11:00,81.0,37.3,28.20,NNW,331,2.2,5.4,21,0.00,CLR,OVC,0.00,WeatherDisplay:10.37,2013-06-27 18:11:00,
2013-06-27 14:16:00,83.1,36.6,28.20,WSW,244,5.4,5.8,19,0.00,CLR,OVC,0.00,WeatherDisplay:10.37,2013-06-27 18:16:00,
2013-06-27 14:21:00,84.4,37.6,28.17,West,267,4.9,10.4,19,0.00,CLR,OVC,0.00,WeatherDisplay:10.37,2013-06-27 18:21:00,
2013-06-27 14:26:00,85.1,36.8,28.17,SSW,200,6.3,8.1,18,0.00,CLR,OVC,0.00,WeatherDisplay:10.37,2013-06-27 18:26:00,
2013-06-27 14:31:00,83.5,35.5,28.17,NNW,327,0.0,5.8,18,0.00,CLR,OVC,0.00,WeatherDisplay:10.37,2013-06-27 18:31:00,
2013-06-27 14:36:00,83.1,36.6,28.17,NNW,331,4.9,5.8,19,0.00,CLR,OVC,0.00,WeatherDisplay:10.37,2013-06-27 18:36:00,
2013-06-27 14:41:00,84.7,37.9,28.17,West,270,3.1,4.0,19,0.00,CLR,OVC,0.00,WeatherDisplay:10.37,2013-06-27 18:41:00,
2013-06-27 14:46:00,86.2,37.7,28.17,SW,218,2.2,3.5,18,0.00,CLR,OVC,0.00,WeatherDisplay:10.37,2013-06-27 18:46:00,
2013-06-27 14:51:00,86.2,34.7,28.17,West,266,0.0,3.5,16,0.00,CLR,OVC,0.00,WeatherDisplay:10.37,2013-06-27 18:51:00,
2013-06-27 14:56:00,85.5,34.1,28.17,SW,226,6.7,11.5,16,0.00,CLR,OVC,0.00,WeatherDisplay:10.37,2013-06-27 18:56:00,
2013-06-27 15:01:00,85.5,34.1,28.17,West,263,3.6,5.8,16,0.00,CLR,OVC,0.00,WeatherDisplay:10.37,2013-06-27 19:01:00,
2013-06-27 15:06:00,85.8,34.4,28.17,ENE,69,4.0,5.8,16,0.00,CLR,OVC,0.00,WeatherDisplay:10.37,2013-06-27 19:06:00,
2013-06-27 15:11:00,85.6,34.3,28.17,West,280,4.0,5.8,16,0.00,CLR,OVC,0.00,WeatherDisplay:10.37,2013-06-27 19:11:00,
2013-06-27 15:16:00,85.5,37.1,28.17,ENE,58,3.6,5.8,18,0.00,CLR,OVC,0.00,WeatherDisplay:10.37,2013-06-27 19:16:00,
2013-06-27 15:21:00,84.0,37.3,28.17,North,1,3.1,5.8,19,0.00,CLR,OVC,0.00,WeatherDisplay:10.37,2013-06-27 19:21:00,
2013-06-27 15:26:00,80.4,41.4,28.17,ENE,75,4.5,8.1,25,0.00,CLR,OVC,0.00,WeatherDisplay:10.37,2013-06-27 19:26:00,
2013-06-27 15:31:00,78.6,45.4,28.17,NE,49,4.0,4.0,31,0.00,CLR,OVC,0.00,WeatherDisplay:10.37,2013-06-27 19:31:00,
2013-06-27 15:32:00,78.4,45.3,28.17,NE,49,4.0,5.8,31,0.00,CLR,OVC,0.00,WeatherDisplay:10.37,2013-06-27 19:32:00,
2013-06-27 15:37:00,77.7,44.7,28.17,ENE,57,3.6,5.8,31,0.00,CLR,OVC,0.00,WeatherDisplay:10.37,2013-06-27 19:37:00,
2013-06-27 15:42:00,77.2,45.0,28.17,East,85,0.0,2.7,32,0.00,CLR,OVC,0.00,WeatherDisplay:10.37,2013-06-27 19:42:00,
2013-06-27 15:47:00,77.4,44.4,28.17,ESE,109,5.4,6.9,31,0.00,CLR,OVC,0.00,WeatherDisplay:10.37,2013-06-27 19:47:00,
2013-06-27 15:52:00,78.1,45.0,28.17,NNE,21,5.4,5.8,31,0.00,CLR,OVC,0.00,WeatherDisplay:10.37,2013-06-27 19:52:00,
2013-06-27 15:57:00,79.3,46.1,28.17,East,89,2.2,3.5,31,0.00,CLR,OVC,0.00,WeatherDisplay:10.37,2013-06-27 19:57:00,
2013-06-27 16:02:00,81.7,46.3,28.17,NE,39,4.0,5.8,29,0.00,CLR,OVC,0.00,WeatherDisplay:10.37,2013-06-27 20:02:00,
2013-06-27 16:07:00,82.9,44.5,28.17,ENE,63,3.6,5.8,26,0.00,CLR,OVC,0.00,WeatherDisplay:10.37,2013-06-27 20:07:00,
2013-06-27 16:12:00,82.9,41.3,28.17,East,97,4.0,5.8,23,0.00,CLR,OVC,0.00,WeatherDisplay:10.37,2013-06-27 20:12:00,
2013-06-27 16:17:00,82.8,41.2,28.17,ENE,73,4.5,5.8,23,0.00,CLR,OVC,0.00,WeatherDisplay:10.37,2013-06-27 20:17:00,
2013-06-27 16:22:00,81.7,45.4,28.17,ENE,59,4.5,5.8,28,0.00,CLR,OVC,0.00,WeatherDisplay:10.37,2013-06-27 20:22:00,
2013-06-27 16:27:00,82.2,40.7,28.17,NE,51,3.1,5.8,23,0.00,CLR,OVC,0.00,WeatherDisplay:10.37,2013-06-27 20:27:00,
2013-06-27 16:32:00,81.3,45.1,28.17,NNW,344,4.0,4.9,28,0.00,CLR,OVC,0.00,WeatherDisplay:10.37,2013-06-27 20:32:00,
2013-06-27 16:37:00,81.5,40.1,28.17,East,84,3.6,4.0,23,0.00,CLR,OVC,0.00,WeatherDisplay:10.37,2013-06-27 20:37:00,
2013-06-27 16:43:00,81.3,46.0,28.17,East,95,3.1,4.0,29,0.00,CLR,OVC,0.00,WeatherDisplay:10.37,2013-06-27 20:43:00,
2013-06-27 16:49:00,80.4,41.4,28.17,ESE,119,2.7,5.8,25,0.00,CLR,OVC,0.00,WeatherDisplay:10.37,2013-06-27 20:49:00,
2013-06-27 16:54:00,78.4,44.4,28.17,NE,51,4.0,6.9,30,0.00,CLR,OVC,0.00,WeatherDisplay:10.37,2013-06-27 20:54:00,
2013-06-27 16:59:00,77.4,44.4,28.17,SSW,201,0.0,2.3,31,0.00,CLR,OVC,0.00,WeatherDisplay:10.37,2013-06-27 20:59:00,
2013-06-27 17:04:00,77.9,44.8,28.14,SE,141,0.0,2.3,31,0.00,CLR,OVC,0.00,WeatherDisplay:10.37,2013-06-27 21:04:00,
2013-06-27 17:10:00,78.8,44.7,28.14,SE,127,1.0,6.0,30,0.00,CLR,OVC,0.00,WeatherDisplay:10.37,2013-06-27 21:10:00,
2013-06-27 17:15:00,77.4,45.2,28.14,SSE,151,0.0,3.5,32,0.00,CLR,OVC,0.00,WeatherDisplay:10.37,2013-06-27 21:15:00,
2013-06-27 17:20:00,76.6,48.4,28.14,SE,140,5.8,8.1,37,0.00,CLR,OVC,0.00,WeatherDisplay:10.37,2013-06-27 21:20:00,
2013-06-27 17:25:00,75.9,45.5,28.14,ENE,59,3.1,4.6,34,0.00,CLR,OVC,0.00,WeatherDisplay:10.37,2013-06-27 21:25:00,
2013-06-27 17:30:00,75.6,45.2,28.14,ENE,68,5.4,6.3,34,0.00,CLR,OVC,0.00,WeatherDisplay:10.37,2013-06-27 21:30:00,
2013-06-27 17:35:00,75.0,43.1,28.14,ESE,111,4.0,8.1,32,0.00,CLR,OVC,0.00,WeatherDisplay:10.37,2013-06-27 21:35:00,
2013-06-27 17:40:00,74.8,40.4,28.14,ENE,71,4.0,8.3,29,0.00,CLR,OVC,0.00,WeatherDisplay:10.37,2013-06-27 21:40:00,
2013-06-27 17:45:00,73.8,40.4,28.14,ESE,113,4.9,9.2,30,0.00,CLR,OVC,0.00,WeatherDisplay:10.37,2013-06-27 21:45:00,
2013-06-27 17:50:00,72.5,41.0,28.14,North,0,5.4,8.1,32,0.00,CLR,OVC,0.00,WeatherDisplay:10.37,2013-06-27 21:50:00,
2013-06-27 17:56:00,71.2,40.6,28.14,NNE,27,3.1,5.8,33,0.00,CLR,OVC,0.00,WeatherDisplay:10.37,2013-06-27 21:56:00,
2013-06-27 18:01:00,70.9,41.1,28.14,East,100,2.7,4.6,34,0.00,CLR,OVC,0.00,WeatherDisplay:10.37,2013-06-27 22:01:00,
2013-06-27 18:07:00,70.3,40.6,28.17,East,85,4.5,5.8,34,0.00,CLR,OVC,0.00,WeatherDisplay:10.37,2013-06-27 22:07:00,
2013-06-27 18:12:00,69.8,40.2,28.17,East,99,3.1,6.9,34,0.00,CLR,OVC,0.00,WeatherDisplay:10.37,2013-06-27 22:12:00,
2013-06-27 18:18:00,69.1,39.5,28.17,SSE,158,3.6,5.8,34,0.00,CLR,OVC,0.00,WeatherDisplay:10.37,2013-06-27 22:18:00,
2013-06-27 18:23:00,68.2,39.5,28.20,South,177,2.2,4.0,35,0.00,CLR,OVC,0.00,WeatherDisplay:10.37,2013-06-27 22:23:00,
2013-06-27 18:28:00,67.1,39.2,28.20,ESE,106,2.2,3.5,36,0.00,CLR,OVC,0.00,WeatherDisplay:10.37,2013-06-27 22:28:00,
2013-06-27 18:33:00,67.3,40.8,28.20,East,86,0.0,5.8,38,0.00,CLR,OVC,0.00,WeatherDisplay:10.37,2013-06-27 22:33:00,
2013-06-27 18:38:00,67.3,40.8,28.20,SSE,159,4.5,6.3,38,0.00,CLR,OVC,0.00,WeatherDisplay:10.37,2013-06-27 22:38:00,
2013-06-27 18:44:00,66.4,42.6,28.20,South,173,3.6,5.8,42,0.00,CLR,OVC,0.00,WeatherDisplay:10.37,2013-06-27 22:44:00,
2013-06-27 18:49:00,65.7,43.1,28.20,SSE,157,2.2,5.8,44,0.00,CLR,OVC,0.00,WeatherDisplay:10.37,2013-06-27 22:49:00,
2013-06-27 18:55:00,65.5,43.6,28.20,SE,139,1.0,5.0,45,0.00,CLR,OVC,0.00,WeatherDisplay:10.37,2013-06-27 22:55:00,
2013-06-27 19:00:00,65.3,43.4,28.20,East,87,3.0,6.0,45,0.00,CLR,OVC,0.00,WeatherDisplay:10.37,2013-06-27 23:00:00,
2013-06-27 19:05:00,65.3,43.4,28.17,ENE,65,4.0,4.6,45,0.00,CLR,OVC,0.00,WeatherDisplay:10.37,2013-06-27 23:05:00,
2013-06-27 19:10:00,65.3,44.0,28.17,South,187,0.0,2.3,46,0.00,CLR,OVC,0.00,WeatherDisplay:10.37,2013-06-27 23:10:00,
2013-06-27 19:15:00,65.1,44.4,28.17,SSE,154,2.0,4.0,47,0.00,CLR,OVC,0.00,WeatherDisplay:10.37,2013-06-27 23:15:00,
2013-06-27 19:20:00,64.9,45.3,28.20,South,177,1.0,6.0,49,0.00,CLR,OVC,0.00,WeatherDisplay:10.37,2013-06-27 23:20:00,
2013-06-27 19:25:00,64.4,48.8,28.20,WSW,250,4.0,8.1,57,0.00,CLR,OVC,0.00,WeatherDisplay:10.37,2013-06-27 23:25:00,
2013-06-27 19:30:00,63.3,50.9,28.20,SSW,198,6.7,10.4,64,0.04,RA,OVC,0.04,WeatherDisplay:10.37,2013-06-27 23:30:00,
2013-06-27 19:36:00,62.6,51.5,28.23,SW,226,4.9,8.1,67,0.04,RA,OVC,0.04,WeatherDisplay:10.37,2013-06-27 23:36:00,
2013-06-27 19:41:00,62.2,51.9,28.23,South,170,6.3,6.3,69,0.08,RA,OVC,0.08,WeatherDisplay:10.37,2013-06-27 23:41:00,
2013-06-27 19:46:00,61.9,52.8,28.23,WSW,244,0.0,3.5,72,0.08,RA,OVC,0.08,WeatherDisplay:10.37,2013-06-27 23:46:00,
2013-06-27 20:50:00,63.0,56.3,28.20,South,189,0.0,4.0,79,0.08,CLR,OVC,0.00,WeatherDisplay:10.37,2013-06-28 00:50:00,
2013-06-27 20:56:00,62.8,56.2,28.20,South,187,3.1,4.6,79,0.00,RA,OVC,0.00,WeatherDisplay:10.37,2013-06-28 00:56:00,
2013-06-27 21:01:00,62.6,56.0,28.20,South,191,0.0,2.7,79,0.00,RA,OVC,0.00,WeatherDisplay:10.37,2013-06-28 01:01:00,
2013-06-27 21:07:00,62.4,55.5,28.20,South,189,2.7,4.6,78,0.00,CLR,OVC,0.00,WeatherDisplay:10.37,2013-06-28 01:07:00,
2013-06-27 21:13:00,62.2,55.3,28.20,SSW,197,0.0,3.5,78,0.00,CLR,OVC,0.00,WeatherDisplay:10.37,2013-06-28 01:13:00,
2013-06-27 21:18:00,62.2,55.6,28.20,SSW,197,0.0,2.3,79,0.00,CLR,OVC,0.00,WeatherDisplay:10.37,2013-06-28 01:18:00,
2013-06-27 21:23:00,62.1,55.5,28.20,SSW,197,0.0,0.0,79,0.00,CLR,OVC,0.00,WeatherDisplay:10.37,2013-06-28 01:23:00,
2013-06-27 21:29:00,62.1,55.5,28.20,SW,220,0.0,3.6,79,0.04,CLR,OVC,0.00,WeatherDisplay:10.37,2013-06-28 01:29:00,
2013-06-27 21:34:00,62.1,55.5,28.20,SW,220,0.0,0.0,79,0.04,CLR,OVC,0.00,WeatherDisplay:10.37,2013-06-28 01:34:00,
2013-06-27 21:39:00,62.1,55.5,28.20,SW,220,0.0,0.0,79,0.00,CLR,OVC,0.00,WeatherDisplay:10.37,2013-06-28 01:39:00,
2013-06-27 21:44:00,62.1,55.5,28.20,SW,220,0.0,2.3,79,0.00,CLR,OVC,0.00,WeatherDisplay:10.37,2013-06-28 01:44:00,
2013-06-27 21:49:00,62.1,55.5,28.20,SW,220,0.0,0.0,79,0.00,CLR,OVC,0.00,WeatherDisplay:10.37,2013-06-28 01:49:00,
2013-06-27 21:54:00,62.1,55.5,28.20,SW,220,0.0,0.0,79,0.00,CLR,OVC,0.00,WeatherDisplay:10.37,2013-06-28 01:54:00,
2013-06-27 21:59:00,61.7,55.5,28.20,SW,220,0.0,0.0,80,0.00,CLR,OVC,0.00,WeatherDisplay:10.37,2013-06-28 01:59:00,
2013-06-27 22:05:00,61.7,55.5,28.20,SW,220,0.0,0.0,80,0.00,CLR,OVC,0.00,WeatherDisplay:10.37,2013-06-28 02:05:00,
2013-06-27 22:09:00,61.7,55.5,28.20,SW,220,0.0,0.0,80,0.00,CLR,OVC,0.00,WeatherDisplay:10.37,2013-06-28 02:09:00,
2013-06-27 22:15:00,61.9,56.0,28.20,SW,220,0.0,0.0,81,0.00,CLR,OVC,0.00,WeatherDisplay:10.37,2013-06-28 02:15:00,
2013-06-27 22:19:00,61.5,56.0,28.20,SW,220,0.0,0.0,82,0.00,CLR,OVC,0.00,WeatherDisplay:10.37,2013-06-28 02:19:00,
2013-06-27 22:25:00,61.3,55.8,28.20,SW,220,0.0,0.0,82,0.00,CLR,OVC,0.00,WeatherDisplay:10.37,2013-06-28 02:25:00,
2013-06-27 22:29:00,61.2,55.6,28.20,South,187,2.7,3.5,82,0.00,CLR,OVC,0.00,WeatherDisplay:10.37,2013-06-28 02:29:00,
2013-06-27 22:35:00,61.2,55.6,28.20,South,186,2.0,4.0,82,0.00,CLR,OVC,0.00,WeatherDisplay:10.37,2013-06-28 02:35:00,
2013-06-27 22:40:00,61.0,55.4,28.20,South,188,0.0,3.0,82,0.00,CLR,OVC,0.00,WeatherDisplay:10.37,2013-06-28 02:40:00,
2013-06-27 22:45:00,61.0,55.4,28.20,SSW,202,0.0,3.0,82,0.00,CLR,OVC,0.00,WeatherDisplay:10.37,2013-06-28 02:45:00,
2013-06-27 22:50:00,60.8,55.3,28.20,SSW,207,0.0,0.0,82,0.00,CLR,OVC,0.00,WeatherDisplay:10.37,2013-06-28 02:50:00,
2013-06-27 22:56:00,60.8,55.3,28.20,SSW,207,0.0,3.5,82,0.00,CLR,OVC,0.00,WeatherDisplay:10.37,2013-06-28 02:56:00,
2013-06-27 23:01:00,60.8,55.3,28.20,SSW,207,0.0,0.0,82,0.00,CLR,OVC,0.00,WeatherDisplay:10.37,2013-06-28 03:01:00,
2013-06-27 23:06:00,60.6,55.1,28.20,SSW,207,0.0,0.0,82,0.00,CLR,OVC,0.00,WeatherDisplay:10.37,2013-06-28 03:06:00,
2013-06-27 23:11:00,60.3,54.7,28.20,SSW,207,0.0,0.0,82,0.00,CLR,OVC,0.00,WeatherDisplay:10.37,2013-06-28 03:11:00,
2013-06-27 23:17:00,60.1,54.6,28.20,SSW,207,0.0,0.0,82,0.00,CLR,OVC,0.00,WeatherDisplay:10.37,2013-06-28 03:17:00,
2013-06-27 23:22:00,60.1,54.6,28.20,SSW,207,0.0,0.0,82,0.00,CLR,OVC,0.00,WeatherDisplay:10.37,2013-06-28 03:22:00,
2013-06-27 23:27:00,60.1,54.6,28.20,SSW,207,0.0,0.0,82,0.00,CLR,OVC,0.00,WeatherDisplay:10.37,2013-06-28 03:27:00,
2013-06-27 23:32:00,60.1,54.9,28.20,SSW,207,0.0,2.3,83,0.00,CLR,OVC,0.00,WeatherDisplay:10.37,2013-06-28 03:32:00,
2013-06-27 23:38:00,60.3,55.1,28.20,SSW,207,0.0,2.7,83,0.00,CLR,OVC,0.00,WeatherDisplay:10.37,2013-06-28 03:38:00,
2013-06-27 23:44:00,60.3,55.1,28.20,SSW,207,0.0,3.1,83,0.00,CLR,OVC,0.00,WeatherDisplay:10.37,2013-06-28 03:44:00,
2013-06-27 23:49:00,61.0,56.1,28.20,NNW,333,0.0,5.8,84,0.00,CLR,OVC,0.00,WeatherDisplay:10.37,2013-06-28 03:49:00,
2013-06-27 23:54:00,61.2,56.6,28.20,West,274,2.2,3.5,85,0.04,RA,OVC,0.04,WeatherDisplay:10.37,2013-06-28 03:54:00,
2013-06-27 23:59:00,61.3,57.1,28.20,West,280,2.2,3.5,86,0.08,RA,OVC,0.08,WeatherDisplay:10.37,2013-06-28 03:59:00,